Find Starlink 3515

NORAD ID: 51738 Int'l Des: 2022-016 Owner: SPXS Country: US Constellation: starlink operational
LEOCIRCULAR

現在のビュー

3D地球を読み込み中...

About Starlink 3515

Starlink 3515 (NORAD 51738) is a starlink constellation satellite (v1.5) launched Feb 21, 2022 by SPXS of US. It operates in LEO, CIRCULAR orbit with a mass of 297.00 kg.

Starlink 3515について

説明を読み込み中...

次回通過

Passes for default location (London). Set your location on the main map for personalized predictions.

高度履歴

Loading altitude history...

軌道要素

1 51738U 22016AA 26170.44839688 .00000215 00000-0 31599-4 0 9990
2 51738 53.1585 222.1966 0001083 87.1104 273.0011 15.08828936238922
Epoch: Jun 19, 2026 • Age: 13 hours

現在のステータス

高度 545.5 km
速度 7.60 km/s
衛星直下点 52.90°N, 52.89°E
打ち上げ日 Feb 21, 2022
運用期間 4.3 years
タイプ internet

技術仕様

分類 Payload
質量 297.00 kg
乾燥質量 275.00 kg
総質量 297.00 kg
長さ 0.20 m
直径 2.80 m
スパン 9.00 m
形状 Box + pan
製造者 SPXS
バスタイプ Starlink
フェーズステータス In Orbit
所有者/国 SPXS/US

Most Searched